Temperature
5 7 6 6 6 6 6 6 6 6 5 5 5 5 5 4 3 3 3 2 2 2 3 3 4 4 5 5 5 5 6 6 6 7 7 7 8 8 8 8 8 8 8 8
7 6 5 5 5 5 6 6 6 5 5 5 5 5 4 3 2 2 2 2 1 1 2 3 3 4 4 5 5 5 6 6 6 6 6 7 7 7 7 7 8 8 8 8
6 5 4 5 5 5 5 6 6 5 5 5 4 5 4 3 2 1 1 1 1 1 1 2 3 3 3 4 4 5 5 5 5 6 6 6 6 6 7 7 7 7 7 7
5 4 4 4 4 4 5 5 4 4 5 5 5 6 5 3 3 2 1 1 0 0 1 1 2 2 3 3 3 4 4 5 5 5 6 6 6 6 6 6 6 7 7 7
4 3 4 4 4 4 4 3 4 4 4 5 4 5 6 3 3 2 1 0 -0 -0 0 0 1 1 2 3 3 3 4 4 5 5 5 5 5 5 5 6 6 6 6 6
3 3 3 3 3 3 3 3 4 4 5 4 4 5 6 4 3 2 1 0 -1 -1 -1 -0 0 1 1 2 2 3 3 4 4 4 4 4 5 5 5 5 5 5 6 6
4 3 2 2 3 3 3 4 5 5 5 5 3 4 4 3 2 2 1 -0 -1 -1 -1 -1 -0 0 1 1 2 2 2 3 3 3 3 4 4 4 4 4 5 5 5 5
4 4 3 2 2 2 3 3 4 5 6 6 3 4 4 2 1 0 -1 -1 -1 -2 -2 -1 -1 -0 0 1 1 1 2 2 2 3 3 3 3 4 4 4 4 4 4 4
3 3 2 1 1 2 2 3 2 3 3 3 4 3 3 1 1 -0 -1 -1 -2 -2 -2 -2 -1 -1 -0 0 0 1 1 1 2 2 2 2 3 3 3 3 3 4 4 4
1 2 2 1 1 1 1 1 2 2 3 5 5 4 4 1 1 0 -1 -1 -2 -2 -2 -2 -2 -1 -1 -0 -0 -0 0 1 1 1 2 2 2 2 3 3 3 3 3 3
0 1 2 1 0 1 0 0 1 2 2 3 4 4 2 1 0 -0 -1 -2 -2 -2 -2 -2 -2 -2 -1 -1 -1 -1 -0 -0 0 1 1 1 1 2 2 2 2 2 2 2
-0 1 1 1 -0 -1 -0 -0 0 2 1 1 3 3 0 -0 -1 -2 -2 -2 -3 -3 -3 -2 -2 -2 -2 -1 -1 -1 -1 -1 -0 0 0 1 1 1 1 1 2 1 1 2
-1 -0 2 3 1 -1 -1 -1 -2 -1 1 1 2 3 -1 -2 -2 -2 -3 -3 -3 -3 -3 -3 -3 -3 -2 -2 -2 -2 -1 -1 -1 -1 -0 0 0 0 1 1 1 1 1 1
-1 -1 0 2 2 0 -1 -2 -2 -2 0 1 1 1 -0 -1 -2 -2 -3 -3 -3 -3 -3 -3 -3 -3 -3 -3 -3 -2 -2 -1 -1 -1 -1 -1 -0 -0 -0 0 0 0 0 0
-2 -1 -2 -1 -1 -1 -2 -2 -2 -3 -2 -0 0 -1 -1 -2 -3 -3 -4 -4 -4 -3 -4 -4 -4 -3 -3 -3 -3 -3 -2 -2 -2 -2 -1 -1 -1 -1 -1 -1 -1 -0 -0 -0
-2 -2 -2 -2 -1 -2 -2 -2 -2 -3 -3 -3 -2 -2 -2 -3 -4 -4 -4 -4 -4 -4 -4 -4 -4 -4 -4 -3 -3 -3 -3 -3 -2 -2 -2 -2 -2 -2 -1 -1 -1 -1 -1 -1
-3 -3 -1 0 -2 -2 -0 -2 -3 -3 -4 -3 -2 -2 -3 -4 -4 -4 -5 -5 -5 -5 -5 -5 -4 -4 -4 -4 -4 -4 -3 -3 -3 -3 -2 -2 -2 -2 -2 -2 -2 -2 -2 -1
-4 -3 -2 -1 -1 0 1 -4 -3 -3 -4 -4 -4 -4 -4 -4 -5 -5 -5 -5 -5 -5 -5 -5 -5 -4 -4 -4 -4 -4 -4 -4 -3 -3 -3 -3 -3 -3 -2 -2 -2 -2 -2 -2
-4 -3 -2 -1 -0 0 -1 -4 -4 -4 -3 -4 -5 -5 -5 -6 -5 -5 -5 -5 -5 -5 -5 -5 -5 -5 -5 -4 -4 -4 -4 -4 -4 -4 -4 -3 -3 -3 -3 -3 -3 -3 -3 -3
-5 -4 -2 -2 -1 0 0 -4 -6 -4 -2 -3 -5 -5 -6 -6 -3 -3 -5 -5 -5 -6 -5 -5 -5 -5 -5 -5 -5 -5 -5 -5 -5 -4 -4 -4 -4 -4 -3 -3 -3 -3 -3 -3
-4 -4 -3 -2 -2 -1 -3 -6 -5 -2 -1 -4 -5 -6 -6 -6 -5 -6 -6 -6 -6 -6 -6 -6 -6 -6 -5 -5 -5 -5 -5 -5 -5 -5 -5 -4 -4 -4 -4 -4 -4 -4 -4 -4
-4 -3 -4 -3 -2 -1 -5 -6 -4 -3 -5 -5 -6 -6 -6 -6 -6 -6 -6 -6 -6 -6 -6 -6 -6 -6 -6 -6 -6 -6 -6 -6 -6 -5 -5 -5 -4 -4 -4 -4 -4 -4 -4 -4
-5 -4 -3 -3 -2 -4 -6 -6 -5 -6 -6 -6 -6 -6 -6 -7 -7 -7 -7 -6 -7 -7 -6 -6 -6 -6 -6 -6 -6 -6 -6 -6 -6 -6 -5 -5 -5 -5 -5 -5 -5 -5 -5 -5
-5 -7 -6 -6 -4 -6 -6 -6 -6 -6 -6 -6 -6 -6 -6 -7 -7 -7 -7 -7 -7 -7 -7 -7 -7 -7 -7 -6 -7 -7 -6 -6 -6 -6 -6 -6 -5 -5 -5 -5 -5 -6 -6 -6
-4 -7 -6 -6 -5 -6 -6 -6 -6 -6 -6 -6 -6 -6 -7 -7 -7 -7 -7 -7 -7 -7 -7 -7 -7 -7 -7 -7 -7 -7 -7 -7 -6 -6 -6 -6 -6 -6 -6 -6 -6 -6 -6 -6
-7 -7 -5 -4 -5 -5 -5 -5 -6 -6 -6 -6 -7 -7 -7 -7 -7 -7 -8 -8 -7 -7 -7 -7 -7 -7 -7 -7 -7 -7 -7 -7 -7 -7 -7 -7 -7 -7 -7 -7 -6 -6 -6 -6
Wind_Speed
3 2 2 2 2 4 4 6 7 5 3 4 6 7 6 4 3 3 3 3 3 4 4 4 4 3 2 2 2 2 2 1 1 2 2 2 2 1 2 3 3 4 4 4
1 2 3 2 1 2 5 6 6 4 2 3 5 8 5 3 4 4 3 3 4 4 5 4 4 3 3 2 2 2 1 1 1 1 2 2 2 1 1 2 2 3 3 4
1 3 3 1 2 3 4 6 6 6 5 4 5 6 4 2 2 3 3 3 4 4 5 5 4 3 3 3 3 2 1 0 1 2 2 2 2 1 1 1 1 1 3 4
2 3 2 3 3 4 5 5 6 6 5 4 3 5 3 2 2 3 4 3 4 4 4 4 4 3 4 4 3 2 1 1 1 2 3 3 2 2 0 1 1 0 2 3
1 3 3 3 4 4 4 5 5 6 6 5 5 5 4 1 3 4 3 3 3 3 3 4 4 4 4 4 4 2 1 1 1 1 2 3 2 1 1 1 1 1 1 2
1 1 2 3 5 3 4 3 3 4 4 5 5 6 4 2 3 4 3 3 3 3 4 4 4 4 4 4 4 3 1 1 1 2 1 2 2 2 2 1 1 0 0 1
3 2 2 3 3 1 3 2 2 2 3 4 2 5 4 2 2 3 2 2 3 3 4 4 4 4 4 4 4 4 3 1 1 1 1 1 1 2 2 1 1 0 0 1
4 3 3 3 2 3 2 2 2 3 4 4 2 5 3 2 1 2 2 2 3 4 4 4 4 4 4 5 5 4 3 3 2 1 1 0 0 1 1 1 1 1 2 1
3 4 2 3 3 2 1 1 2 3 3 5 4 4 4 3 3 3 3 3 3 4 4 4 5 4 4 4 4 3 3 3 2 1 1 1 0 0 1 1 1 2 2 1
2 5 4 3 1 3 2 1 2 2 3 5 5 4 3 4 5 4 4 5 5 5 5 5 4 4 4 3 3 2 2 2 2 2 1 1 1 1 1 2 2 2 2 2
2 3 3 1 1 3 1 0 2 2 3 4 5 4 2 3 4 4 4 5 6 6 5 5 4 4 4 3 2 3 2 2 2 2 2 2 2 1 1 2 2 2 2 2
1 2 4 3 1 1 1 2 3 3 3 3 4 4 3 3 4 4 5 6 6 5 5 5 5 4 4 4 3 3 3 3 3 3 3 3 2 1 2 2 2 2 3 3
1 2 4 2 2 0 2 2 3 4 3 4 5 5 2 5 6 5 6 6 6 5 5 5 5 4 4 4 4 4 4 4 3 3 3 3 2 2 2 2 2 2 3 3
1 2 5 6 6 4 4 4 3 4 4 6 9 11 7 7 8 8 8 8 7 6 5 5 5 4 4 4 4 4 4 4 4 3 3 3 3 2 2 2 2 3 3 3
1 3 5 9 10 8 8 8 6 7 8 9 10 10 11 9 9 8 8 8 8 7 6 5 5 5 4 4 4 4 4 4 4 4 4 4 3 3 2 2 2 3 3 3
1 3 3 7 7 6 8 10 9 10 9 11 13 13 9 8 7 7 7 7 7 7 7 6 6 6 5 5 5 5 5 4 4 4 4 4 3 3 3 3 2 3 3 3
3 3 3 6 4 5 8 7 8 7 8 7 9 8 6 6 7 7 7 7 8 8 8 7 6 6 6 6 5 5 5 4 4 4 4 4 4 3 3 3 3 3 3 4
4 3 3 4 3 6 3 1 4 7 9 8 8 8 7 8 8 6 6 7 8 8 8 8 7 7 7 6 5 5 5 4 4 4 4 4 3 3 3 3 3 3 3 3
4 4 3 3 5 8 4 2 3 5 7 5 7 8 7 6 5 4 4 4 6 7 7 7 7 7 7 6 5 5 5 4 4 4 4 4 4 3 3 4 4 4 3 4
2 3 3 3 4 5 2 2 1 2 5 3 5 6 5 4 4 4 4 6 7 7 6 6 7 6 6 6 5 4 5 4 5 5 5 5 4 4 4 4 4 4 4 4
2 3 5 6 6 7 0 2 3 3 3 1 3 4 4 4 5 6 7 7 7 7 7 6 6 5 5 5 4 4 4 5 5 5 5 5 4 4 4 4 4 4 3 3
5 5 5 4 6 6 4 5 5 3 2 2 3 4 5 5 6 6 7 7 7 7 7 6 6 6 5 4 4 4 5 5 5 5 5 4 4 4 3 3 3 3 3 3
7 6 4 6 5 1 5 5 4 2 3 4 4 5 4 5 6 7 7 7 7 7 7 6 6 6 5 4 4 5 5 5 4 5 5 4 4 3 3 3 3 3 3 3
5 3 4 6 8 5 6 7 6 5 5 5 5 5 4 6 7 7 7 7 7 7 7 6 6 6 6 5 5 5 5 4 4 4 4 4 3 3 3 3 3 3 3 3
4 6 5 7 7 5 5 7 7 7 6 6 5 5 5 6 7 7 7 7 6 6 6 6 5 5 6 6 5 5 4 4 4 4 4 3 3 3 3 3 3 3 4 4
5 6 6 5 4 3 4 4 4 5 6 6 5 6 5 5 6 6 6 6 6 6 6 6 6 6 6 6 6 5 4 3 3 3 3 3 2 2 2 2 3 3 4 5
Wind_Direction
38 53 18 330 276 253 246 241 259 275 275 273 251 267 281 301 308 301 297 308 315 315 322 332 335 334 341 358 345 330 319 303 155 143 150 153 142 128 112 96 109 117 119 123
90 18 330 331 314 259 237 244 261 286 297 270 273 276 279 284 275 288 295 306 319 326 332 339 340 346 348 350 340 338 323 226 179 160 166 174 183 152 114 89 100 127 129 136
61 356 344 348 339 301 263 250 264 278 291 250 277 271 253 276 283 313 310 310 323 328 331 336 333 336 347 338 335 333 331 279 188 159 138 130 127 117 103 93 97 129 142 144
7 351 351 341 325 297 279 287 268 262 261 262 267 278 272 275 302 315 316 321 322 327 331 330 330 339 342 332 319 316 322 39 47 141 147 147 152 152 212 186 182 122 139 142
5 0 354 328 314 297 288 301 264 249 246 261 253 257 274 280 284 292 305 304 305 314 326 331 334 340 342 343 329 310 11 46 50 99 155 155 155 149 120 131 114 117 125 132
359 8 352 326 324 310 307 273 229 218 230 249 250 245 270 243 269 287 295 311 324 329 332 335 337 344 348 348 351 345 25 61 72 69 116 148 163 154 134 136 108 78 139 139
353 41 14 342 333 12 343 292 268 242 234 253 222 240 268 293 273 262 274 311 321 321 324 336 340 346 346 348 360 7 14 15 51 72 72 129 166 165 166 184 188 220 243 253
334 332 8 358 329 303 293 284 271 269 269 287 244 249 283 338 316 330 315 311 323 322 322 328 329 337 342 349 360 2 7 9 3 43 50 109 138 179 198 208 211 228 235 237
323 303 355 353 344 321 285 242 297 270 270 271 265 279 288 337 343 344 331 323 323 319 323 325 328 331 335 341 348 352 352 354 347 330 345 334 233 223 233 225 226 236 244 250
299 286 305 327 343 26 334 234 219 236 269 271 281 273 288 311 313 323 327 323 324 324 321 321 322 325 327 332 340 344 331 329 334 321 304 283 256 233 260 232 233 243 252 257
265 269 301 327 323 315 3 210 254 239 268 269 281 284 352 305 306 300 308 315 318 315 311 309 314 318 323 328 333 329 316 323 328 323 307 301 284 263 269 246 242 251 254 248
274 263 278 269 240 332 250 265 241 251 257 247 271 286 36 335 329 319 314 318 317 309 306 307 314 322 328 329 328 326 328 327 319 313 308 304 302 297 285 285 276 268 254 248
192 248 291 269 207 182 263 277 257 256 262 250 259 275 22 351 338 325 314 315 316 310 312 316 320 325 325 323 322 321 325 318 308 303 306 310 303 291 286 288 284 275 262 253
172 230 247 270 289 283 268 269 240 224 245 258 257 274 297 320 319 319 320 317 314 312 313 318 319 322 324 320 318 318 320 318 314 311 313 310 308 294 286 283 271 264 258 250
196 252 252 264 270 267 264 268 246 227 244 257 272 277 289 303 303 305 310 314 319 318 318 318 316 319 322 324 324 324 324 325 325 327 326 317 319 313 306 288 275 266 260 256
223 248 266 273 264 261 266 266 252 248 251 258 271 278 292 305 305 306 309 313 314 313 314 317 319 320 321 321 320 321 321 321 323 323 317 314 319 316 314 309 297 279 268 263
204 218 256 273 288 276 267 252 227 233 235 238 255 272 294 300 299 300 306 310 309 309 312 313 316 315 314 313 314 315 317 318 318 315 313 310 312 309 307 307 303 289 282 272
204 217 244 278 288 256 273 84 220 239 250 240 255 270 283 290 299 299 299 302 304 307 310 315 318 314 312 311 311 313 312 313 311 309 312 309 309 306 305 300 292 289 286 280
214 213 232 246 266 274 269 203 205 232 268 241 249 271 291 311 304 295 308 305 302 304 307 310 313 311 308 307 309 312 312 311 310 309 309 305 300 297 295 293 292 292 287 283
167 214 232 232 252 262 294 121 197 219 264 230 246 269 285 303 297 314 336 318 312 312 313 314 314 311 310 309 312 308 305 306 304 303 302 299 292 287 286 286 289 288 282 281
184 208 223 235 248 265 290 141 165 221 292 304 256 265 264 264 283 305 312 310 311 313 312 313 311 307 304 306 304 297 299 295 298 301 299 295 291 289 284 285 287 286 282 282
197 198 208 211 232 258 147 155 201 262 339 294 280 274 267 273 287 294 300 305 309 312 313 312 310 306 303 299 290 287 289 294 299 299 298 293 292 294 286 284 288 288 282 278
215 214 216 212 235 333 175 213 247 287 277 281 283 281 269 276 286 293 298 302 305 308 309 310 306 305 304 297 281 278 286 293 294 294 292 289 292 288 280 280 284 285 278 270
217 209 228 252 259 257 242 247 256 260 268 278 278 278 272 275 283 291 298 303 306 308 308 308 306 304 305 304 291 277 281 284 281 284 287 291 292 290 290 286 282 278 276 271
222 185 220 250 269 282 254 247 257 264 266 272 278 277 277 278 282 287 293 298 303 307 309 308 304 302 304 306 299 291 285 280 280 283 286 293 291 286 288 290 289 280 279 275
198 198 208 242 240 238 265 263 262 258 261 264 273 282 283 275 279 288 293 297 300 304 307 309 308 304 304 306 301 298 294 283 279 286 291 291 291 287 281 285 300 310 293 305
Height
1525 1524 1523 1524 1524 1523 1522 1521 1519 1519 1522 1522 1518 1517 1519 1520 1520 1519 1518 1516 1515 1514 1513 1513 1512 1512 1512 1512 1514 1514 1514 1514 1515 1516 1518 1520 1523 1525 1527 1529 1531 1532 1534 1535
1523 1525 1528 1528 1527 1525 1523 1521 1519 1521 1523 1522 1518 1516 1517 1518 1518 1518 1517 1515 1514 1512 1511 1511 1510 1510 1510 1510 1510 1510 1511 1513 1513 1514 1516 1519 1521 1523 1525 1527 1529 1531 1532 1533
1526 1530 1530 1529 1526 1524 1522 1521 1520 1521 1522 1521 1519 1511 1513 1515 1516 1516 1515 1514 1513 1511 1509 1508 1508 1508 1508 1508 1508 1508 1509 1510 1511 1513 1515 1517 1519 1521 1523 1524 1526 1528 1529 1531
1529 1532 1531 1528 1526 1525 1520 1523 1523 1522 1519 1514 1518 1507 1506 1511 1512 1513 1513 1512 1511 1510 1509 1508 1507 1506 1506 1506 1506 1507 1507 1507 1509 1511 1512 1514 1515 1517 1519 1521 1523 1525 1527 1528
1531 1533 1531 1528 1528 1528 1524 1525 1523 1521 1519 1516 1516 1512 1502 1509 1510 1511 1512 1512 1511 1510 1509 1508 1506 1506 1506 1505 1505 1505 1505 1506 1507 1509 1510 1511 1513 1515 1517 1519 1521 1522 1524 1526
1534 1535 1535 1533 1531 1530 1528 1525 1522 1519 1516 1513 1514 1511 1498 1505 1509 1509 1510 1510 1509 1509 1508 1507 1506 1505 1505 1505 1504 1503 1504 1505 1505 1507 1508 1509 1510 1512 1514 1516 1518 1520 1521 1523
1532 1534 1535 1535 1531 1529 1528 1521 1512 1508 1507 1504 1514 1511 1505 1508 1510 1510 1510 1510 1509 1509 1508 1506 1505 1504 1504 1503 1503 1502 1502 1503 1503 1505 1506 1507 1508 1510 1512 1513 1515 1517 1519 1520
1532 1529 1535 1536 1535 1532 1529 1526 1520 1512 1504 1500 1511 1506 1507 1511 1511 1511 1510 1510 1509 1508 1507 1506 1505 1504 1503 1502 1501 1501 1501 1501 1502 1503 1504 1505 1506 1507 1509 1511 1512 1514 1515 1517
1537 1533 1538 1538 1538 1535 1530 1529 1532 1526 1522 1516 1505 1508 1509 1511 1510 1511 1511 1510 1509 1508 1507 1505 1504 1503 1502 1501 1500 1499 1500 1500 1501 1501 1502 1503 1504 1505 1506 1508 1509 1510 1512 1514
1547 1542 1538 1539 1538 1538 1536 1534 1532 1526 1516 1504 1500 1503 1504 1510 1511 1511 1510 1509 1508 1507 1505 1504 1503 1502 1501 1500 1499 1499 1499 1499 1499 1500 1500 1501 1502 1503 1504 1505 1506 1508 1509 1510
1549 1545 1538 1538 1539 1537 1538 1537 1533 1527 1524 1511 1501 1501 1510 1511 1512 1511 1510 1509 1508 1506 1505 1503 1502 1501 1500 1499 1498 1498 1498 1497 1497 1498 1498 1499 1500 1501 1502 1503 1503 1505 1506 1507
1549 1546 1538 1537 1541 1542 1539 1538 1535 1527 1525 1523 1511 1510 1514 1514 1513 1511 1510 1509 1507 1506 1504 1502 1500 1499 1498 1497 1497 1496 1495 1495 1495 1496 1497 1497 1497 1498 1499 1499 1500 1501 1502 1504
1550 1547 1534 1527 1537 1542 1541 1540 1540 1536 1528 1521 1513 1511 1515 1515 1513 1512 1511 1509 1507 1505 1503 1501 1499 1497 1496 1495 1494 1494 1493 1493 1494 1495 1495 1494 1494 1495 1496 1496 1497 1498 1499 1500
1549 1548 1541 1530 1528 1535 1539 1540 1539 1536 1526 1519 1517 1512 1514 1515 1514 1512 1510 1508 1506 1504 1502 1500 1498 1496 1495 1494 1493 1492 1492 1492 1492 1492 1492 1492 1492 1493 1493 1494 1495 1495 1496 1496
1549 1545 1544 1540 1538 1538 1537 1536 1537 1536 1530 1522 1514 1516 1513 1515 1515 1513 1511 1508 1505 1502 1501 1499 1497 1495 1494 1493 1492 1491 1490 1490 1490 1489 1489 1489 1489 1490 1490 1491 1492 1492 1492 1493
1548 1546 1545 1539 1536 1537 1535 1531 1532 1533 1531 1526 1521 1517 1515 1515 1514 1512 1510 1507 1505 1502 1500 1498 1496 1494 1492 1491 1490 1489 1488 1487 1487 1487 1487 1487 1487 1487 1488 1488 1488 1489 1489 1489
1546 1545 1540 1528 1534 1534 1523 1524 1528 1528 1526 1525 1519 1515 1515 1514 1512 1511 1509 1506 1504 1502 1500 1498 1496 1493 1492 1490 1489 1488 1486 1486 1485 1485 1485 1485 1485 1485 1485 1485 1485 1486 1486 1486
1545 1543 1539 1532 1532 1522 1516 1524 1524 1523 1521 1521 1518 1516 1515 1513 1511 1509 1507 1505 1503 1501 1498 1496 1494 1492 1491 1489 1487 1486 1485 1484 1483 1483 1483 1483 1483 1482 1482 1483 1483 1483 1483 1483
1543 1542 1537 1532 1524 1515 1517 1523 1524 1523 1517 1516 1516 1514 1513 1511 1509 1506 1505 1503 1502 1500 1497 1495 1493 1491 1489 1487 1486 1484 1483 1482 1481 1481 1480 1480 1480 1480 1480 1480 1480 1480 1480 1480
1543 1542 1538 1533 1524 1513 1511 1522 1522 1523 1513 1512 1513 1512 1512 1511 1507 1504 1504 1502 1500 1498 1496 1493 1491 1489 1487 1485 1484 1482 1481 1480 1479 1479 1478 1478 1478 1477 1477 1477 1477 1477 1477 1476
1540 1539 1536 1530 1524 1514 1518 1521 1522 1517 1509 1511 1511 1510 1510 1509 1507 1505 1502 1500 1498 1496 1493 1491 1489 1487 1485 1483 1482 1480 1479 1478 1477 1477 1476 1476 1475 1475 1475 1475 1474 1474 1473 1473
1532 1530 1531 1528 1523 1515 1519 1520 1518 1512 1512 1510 1510 1509 1508 1506 1504 1502 1500 1498 1496 1493 1491 1489 1486 1484 1483 1481 1480 1477 1476 1475 1475 1474 1473 1473 1473 1472 1472 1472 1471 1470 1470 1469
1529 1526 1522 1522 1516 1514 1514 1513 1512 1512 1511 1509 1508 1507 1505 1503 1501 1499 1497 1495 1493 1490 1488 1486 1483 1481 1480 1478 1477 1475 1474 1473 1472 1472 1471 1470 1470 1469 1469 1468 1467 1467 1467 1466
1525 1526 1524 1520 1512 1512 1512 1511 1510 1509 1508 1507 1506 1505 1503 1501 1499 1497 1495 1492 1490 1487 1485 1483 1480 1478 1476 1475 1474 1472 1471 1470 1470 1469 1468 1467 1466 1466 1466 1465 1465 1464 1464 1463
1518 1522 1519 1516 1511 1510 1508 1507 1507 1506 1505 1504 1503 1502 1500 1498 1496 1494 1492 1490 1487 1484 1482 1479 1477 1475 1473 1472 1471 1470 1469 1468 1467 1466 1465 1464 1464 1463 1462 1462 1462 1462 1461 1461
1514 1514 1513 1507 1506 1507 1505 1505 1504 1503 1502 1501 1500 1498 1497 1496 1493 1491 1489 1487 1484 1482 1479 1477 1475 1473 1471 1469 1468 1467 1466 1465 1464 1463 1462 1461 1461 1460 1460 1459 1459 1459 1459 1458